When you browse on this site, cookies collect data to enhance your experience and personalize the content and advertising you see.
Visit our Privacy Policy to learn more. By continuing to use the site, you agree to this use of cookies and data.
  • en France
  • Liste des pays
  • À 7 jours
  • Température de l'eau
  • Carte satellitaire
  • Carte météo
  • Widgets météo
  • user-avatar
    Se connecter

    Météo par heure à Buncrana

    Ce jour, 24 Mai, Vendredi

    Heure Température Précipitation Vent Pression Humidité
    00:00 +11°C° 0 mm 1 m/s 756 mmHg 65%
    01:00 +11°C° 0 mm 1 m/s 756 mmHg 68%
    02:00 +11°C° 0 mm 1 m/s 756 mmHg 71%
    03:00 +9°C° 0 mm 0 m/s 756 mmHg 74%
    04:00 +10°C° 0 mm 0 m/s 756 mmHg 77%
    05:00 +10°C° 0 mm 0 m/s 756 mmHg 79%
    06:00 +11°C° 0 mm 1 m/s 756 mmHg 79%
    07:00 +11°C° 0 mm 1 m/s 756 mmHg 77%
    08:00 +12°C° 0 mm 1 m/s 756 mmHg 75%
    09:00 +13°C° 0 mm 1 m/s 757 mmHg 74%
    10:00 +13°C° 0 mm 2 m/s 757 mmHg 75%
    11:00 +13°C° 0 mm 2 m/s 757 mmHg 77%
    12:00 +13°C° 0 mm 2 m/s 757 mmHg 78%
    13:00 +14°C° 0 mm 2 m/s 757 mmHg 76%
    14:00 +13°C° 0 mm 3 m/s 757 mmHg 73%
    15:00 +14°C° 0 mm 3 m/s 757 mmHg 71%
    16:00 +13°C° 0 mm 3 m/s 757 mmHg 72%
    17:00 +13°C° 0 mm 3 m/s 757 mmHg 74%
    18:00 +12°C° 0 mm 3 m/s 757 mmHg 75%
    19:00 +12°C° 0 mm 2 m/s 757 mmHg 80%
    20:00 +10°C° 0 mm 2 m/s 758 mmHg 85%
    21:00 +9°C° 0 mm 1 m/s 758 mmHg 90%
    22:00 +9°C° 0 mm 1 m/s 758 mmHg 90%
    23:00 +7°C° 0 mm 0 m/s 758 mmHg 91%

    Demain, 25 Mai, Samedi

    Heure Température Précipitation Vent Pression Humidité
    00:00 +7°C° 0 mm 0 m/s 758 mmHg 92%
    01:00 +7°C° 0 mm 0 m/s 757 mmHg 93%
    02:00 +8°C° 0 mm 1 m/s 757 mmHg 93%
    03:00 +8°C° 0 mm 1 m/s 757 mmHg 94%
    04:00 +8°C° 0.1 mm 1 m/s 757 mmHg 93%
    05:00 +9°C° 0.1 mm 1 m/s 756 mmHg 92%
    06:00 +10°C° 0.1 mm 1 m/s 756 mmHg 91%
    07:00 +9°C° 0.5 mm 2 m/s 756 mmHg 92%
    08:00 +10°C° 0.5 mm 2 m/s 756 mmHg 94%
    09:00 +10°C° 0.5 mm 2 m/s 756 mmHg 95%
    10:00 +11°C° 0.5 mm 3 m/s 755 mmHg 95%
    11:00 +11°C° 0.5 mm 3 m/s 755 mmHg 95%
    12:00 +12°C° 0.5 mm 3 m/s 755 mmHg 95%
    13:00 +13°C° 0.1 mm 4 m/s 755 mmHg 94%
    14:00 +14°C° 0.1 mm 5 m/s 754 mmHg 92%
    15:00 +14°C° 0.1 mm 6 m/s 754 mmHg 91%
    16:00 +14°C° 0 mm 5 m/s 754 mmHg 92%
    17:00 +14°C° 0 mm 5 m/s 753 mmHg 93%
    18:00 +13°C° 0 mm 5 m/s 753 mmHg 93%
    19:00 +13°C° 0 mm 5 m/s 753 mmHg 94%
    20:00 +13°C° 0 mm 5 m/s 753 mmHg 94%
    21:00 +13°C° 0 mm 5 m/s 753 mmHg 95%
    22:00 +13°C° 0 mm 4 m/s 752 mmHg 95%
    23:00 +13°C° 0 mm 4 m/s 752 mmHg 95%

    Après-demain, 26 Mai, Dimanche

    Heure Température Précipitation Vent Pression Humidité
    00:00 +13°C° 0 mm 4 m/s 751 mmHg 96%
    01:00 +13°C° 0.2 mm 5 m/s 751 mmHg 96%
    02:00 +13°C° 0.2 mm 6 m/s 750 mmHg 96%
    03:00 +13°C° 0.2 mm 6 m/s 750 mmHg 96%
    04:00 +12°C° 0.1 mm 7 m/s 750 mmHg 95%
    05:00 +11°C° 0.1 mm 7 m/s 750 mmHg 95%
    06:00 +11°C° 0.1 mm 7 m/s 750 mmHg 94%
    07:00 +10°C° 0 mm 7 m/s 750 mmHg 92%
    08:00 +10°C° 0 mm 7 m/s 750 mmHg 90%
    09:00 +10°C° 0 mm 7 m/s 751 mmHg 87%
    10:00 +10°C° 0.1 mm 7 m/s 751 mmHg 85%
    11:00 +10°C° 0.1 mm 7 m/s 751 mmHg 83%
    12:00 +10°C° 0.1 mm 7 m/s 751 mmHg 81%
    13:00 +11°C° 0.1 mm 8 m/s 751 mmHg 77%
    14:00 +12°C° 0.1 mm 8 m/s 751 mmHg 74%
    15:00 +12°C° 0.1 mm 8 m/s 751 mmHg 70%
    16:00 +12°C° 0.2 mm 8 m/s 751 mmHg 73%
    17:00 +11°C° 0.2 mm 7 m/s 751 mmHg 76%
    18:00 +11°C° 0.2 mm 7 m/s 751 mmHg 79%
    19:00 +10°C° 0.1 mm 7 m/s 751 mmHg 82%
    20:00 +9°C° 0.1 mm 6 m/s 751 mmHg 84%
    21:00 +8°C° 0.1 mm 6 m/s 751 mmHg 87%
    22:00 +8°C° 0.1 mm 6 m/s 751 mmHg 87%
    23:00 +8°C° 0.1 mm 5 m/s 751 mmHg 88%

    27 Mai, Lundi

    Heure Température Précipitation Vent Pression Humidité
    00:00 +8°C° 0.1 mm 5 m/s 750 mmHg 88%
    01:00 +8°C° 0.1 mm 5 m/s 750 mmHg 87%
    02:00 +8°C° 0.1 mm 5 m/s 750 mmHg 87%
    03:00 +8°C° 0.1 mm 5 m/s 749 mmHg 86%
    04:00 +8°C° 0.2 mm 5 m/s 749 mmHg 87%
    05:00 +8°C° 0.2 mm 5 m/s 749 mmHg 88%
    06:00 +8°C° 0.2 mm 5 m/s 749 mmHg 89%
    07:00 +9°C° 0.3 mm 6 m/s 749 mmHg 88%
    08:00 +9°C° 0.3 mm 6 m/s 748 mmHg 87%
    09:00 +10°C° 0.3 mm 6 m/s 748 mmHg 85%
    10:00 +10°C° 0.4 mm 6 m/s 748 mmHg 84%
    11:00 +11°C° 0.4 mm 6 m/s 748 mmHg 82%
    12:00 +11°C° 0.4 mm 6 m/s 748 mmHg 80%
    13:00 +11°C° 0.5 mm 6 m/s 748 mmHg 81%
    14:00 +11°C° 0.5 mm 6 m/s 747 mmHg 81%
    15:00 +11°C° 0.5 mm 6 m/s 747 mmHg 81%
    16:00 +10°C° 0.3 mm 6 m/s 747 mmHg 82%
    17:00 +10°C° 0.3 mm 5 m/s 747 mmHg 83%
    18:00 +9°C° 0.3 mm 5 m/s 747 mmHg 84%
    19:00 +9°C° 0 mm 5 m/s 748 mmHg 83%
    20:00 +8°C° 0 mm 5 m/s 748 mmHg 83%
    21:00 +7°C° 0 mm 6 m/s 749 mmHg 82%
    22:00 +8°C° 0 mm 6 m/s 749 mmHg 81%
    23:00 +8°C° 0 mm 7 m/s 750 mmHg 80%

    28 Mai, Mardi

    Heure Température Précipitation Vent Pression Humidité
    00:00 +8°C° 0 mm 7 m/s 750 mmHg 79%
    01:00 +6°C° 0.1 mm 7 m/s 751 mmHg 81%
    02:00 +7°C° 0.1 mm 6 m/s 751 mmHg 84%
    03:00 +6°C° 0.1 mm 5 m/s 752 mmHg 86%
    04:00 +7°C° 0.1 mm 5 m/s 752 mmHg 86%
    05:00 +7°C° 0.1 mm 5 m/s 753 mmHg 85%
    06:00 +7°C° 0.1 mm 6 m/s 754 mmHg 85%
    07:00 +7°C° 0.1 mm 6 m/s 754 mmHg 77%
    08:00 +8°C° 0.1 mm 6 m/s 755 mmHg 70%
    09:00 +9°C° 0.1 mm 6 m/s 755 mmHg 63%
    10:00 +9°C° 0.1 mm 6 m/s 756 mmHg 62%
    11:00 +10°C° 0.1 mm 6 m/s 756 mmHg 62%
    12:00 +10°C° 0.1 mm 5 m/s 757 mmHg 61%
    13:00 +10°C° 0 mm 5 m/s 757 mmHg 60%
    14:00 +10°C° 0 mm 5 m/s 757 mmHg 59%
    15:00 +10°C° 0 mm 5 m/s 757 mmHg 57%
    16:00 +9°C° 0 mm 5 m/s 757 mmHg 59%
    17:00 +9°C° 0 mm 5 m/s 758 mmHg 61%
    18:00 +8°C° 0 mm 4 m/s 758 mmHg 63%
    19:00 +8°C° 0 mm 4 m/s 758 mmHg 68%
    20:00 +7°C° 0 mm 4 m/s 758 mmHg 72%
    21:00 +6°C° 0 mm 4 m/s 758 mmHg 76%
    22:00 +7°C° 0.1 mm 3 m/s 758 mmHg 77%
    23:00 +7°C° 0.1 mm 3 m/s 758 mmHg 78%

    29 Mai, Mercredi

    Heure Température Précipitation Vent Pression Humidité
    00:00 +7°C° 0.1 mm 3 m/s 758 mmHg 79%
    01:00 +7°C° 0 mm 3 m/s 758 mmHg 81%
    02:00 +5°C° 0 mm 4 m/s 758 mmHg 82%
    03:00 +5°C° 0 mm 4 m/s 758 mmHg 84%
    04:00 +6°C° 0 mm 4 m/s 758 mmHg 83%
    05:00 +7°C° 0 mm 3 m/s 758 mmHg 82%
    06:00 +8°C° 0 mm 3 m/s 758 mmHg 81%
    07:00 +8°C° 0 mm 4 m/s 758 mmHg 75%
    08:00 +10°C° 0 mm 4 m/s 758 mmHg 70%
    09:00 +11°C° 0 mm 4 m/s 758 mmHg 65%
    10:00 +12°C° 0 mm 4 m/s 758 mmHg 62%
    11:00 +13°C° 0 mm 4 m/s 758 mmHg 58%
    12:00 +14°C° 0 mm 5 m/s 758 mmHg 55%
    13:00 +13°C° 0 mm 4 m/s 758 mmHg 59%
    14:00 +13°C° 0 mm 4 m/s 757 mmHg 64%
    15:00 +13°C° 0 mm 4 m/s 757 mmHg 68%
    16:00 +12°C° 0.7 mm 3 m/s 756 mmHg 77%
    17:00 +11°C° 0.7 mm 3 m/s 756 mmHg 85%
    18:00 +10°C° 0.7 mm 2 m/s 755 mmHg 93%
    19:00 +9°C° 1.8 mm 2 m/s 754 mmHg 94%
    20:00 +9°C° 1.8 mm 3 m/s 754 mmHg 95%
    21:00 +9°C° 1.8 mm 3 m/s 753 mmHg 96%
    22:00 +9°C° 1.5 mm 3 m/s 752 mmHg 97%
    23:00 +10°C° 1.5 mm 3 m/s 751 mmHg 97%
    Voir plus